Location: Unspecified
(0.0000°N, 0.0000°E)
Time: 16:52:38
(UTC+00:00)

A-11 Canister half - All Passes

Search period start: 30 September 2016 00:00
Search period end: 10 October 2016 00:00
Orbit: 1525 x 1684 km, 47.3° (Epoch: 28 September)

Date Brightness Start Highest point End Pass type
(mag) Time Alt. Az. Time Alt. Az. Time Alt. Az.
30 Sep - 05:11:24 10° S 05:16:49 16° SE 05:22:08 10° E visible
30 Sep - 07:12:32 10° SW 07:22:04 87° SE 07:31:23 10° NE daylight
30 Sep - 09:21:21 10° W 09:27:05 18° NW 09:32:49 10° N daylight
30 Sep - 17:59:18 10° NNW 18:08:18 39° NE 18:17:27 10° ESE visible
30 Sep - 20:03:48 10° WNW 20:13:15 47° SW 20:22:53 10° SSE visible
01 Oct - 04:50:17 10° SSE 04:55:10 15° SE 04:59:59 10° ESE visible
01 Oct - 06:50:58 10° SW 07:00:31 81° SE 07:09:49 10° NE daylight
01 Oct - 08:59:19 10° W 09:05:28 19° NW 09:11:37 10° N daylight
01 Oct - 17:37:52 10° NNW 17:46:41 37° NE 17:55:39 10° ESE daylight
01 Oct - 19:42:06 10° WNW 19:51:38 50° SW 20:01:23 10° SSE visible
02 Oct - 04:29:14 10° SSE 04:33:31 14° SE 04:37:44 10° ESE visible
02 Oct - 06:29:24 10° SW 06:38:57 76° SE 06:48:14 10° NE daylight
02 Oct - 08:37:19 10° W 08:43:52 21° NW 08:50:23 10° N daylight
02 Oct - 17:16:28 10° NNW 17:25:04 34° NE 17:33:50 10° ESE daylight
02 Oct - 19:20:25 10° NW 19:30:01 54° SW 19:39:52 10° SSE visible
03 Oct - 04:08:19 10° SSE 04:11:51 12° SE 04:15:21 10° ESE visible
03 Oct - 06:07:50 10° SSW 06:17:23 71° SE 06:26:38 10° NE daylight
03 Oct - 08:15:21 10° W 08:22:16 23° NW 08:29:07 10° N daylight
03 Oct - 16:55:05 10° N 17:03:27 32° NE 17:11:58 10° ESE daylight
03 Oct - 18:58:44 10° NW 19:08:24 58° SW 19:18:20 10° SSE visible
04 Oct - 03:47:39 10° SSE 03:50:11 11° SE 03:52:41 10° ESE visible
04 Oct - 05:46:18 10° SSW 05:55:49 67° SE 06:05:02 10° NE daylight
04 Oct - 07:53:26 10° W 08:00:39 25° NW 08:07:50 10° N daylight
04 Oct - 16:33:43 10° N 16:41:49 29° NE 16:50:06 10° ESE daylight
04 Oct - 18:37:05 10° NW 18:46:48 62° SW 18:56:48 10° SSE visible
04 Oct - 20:50:54 10° SW 20:52:40 11° SW 20:54:27 10° SSW visible
05 Oct - 03:28:17 10° SE 03:28:30 10° SE 03:28:44 10° SE visible
05 Oct - 05:24:45 10° SSW 05:34:14 62° SE 05:43:25 10° NE visible
05 Oct - 07:31:32 10° WSW 07:39:04 27° NW 07:46:30 10° N daylight
05 Oct - 16:12:23 10° N 16:20:13 27° NE 16:28:12 10° ESE daylight
05 Oct - 18:15:26 10° NW 18:25:11 66° SW 18:35:15 10° SSE visible
05 Oct - 20:27:48 10° WSW 20:30:58 12° SW 20:34:09 10° SSW visible
06 Oct - 05:03:13 10° SSW 05:12:40 58° SE 05:21:47 10° NE visible
06 Oct - 07:09:41 10° WSW 07:17:28 29° NW 07:25:10 10° N daylight
06 Oct - 15:51:03 10° N 15:58:35 25° NE 16:06:15 10° E daylight
06 Oct - 17:53:48 10° NW 18:03:35 70° SW 18:13:40 10° SSE visible
06 Oct - 20:05:13 10° WSW 20:09:17 13° SW 20:13:23 10° SSW visible
07 Oct - 04:41:41 10° SSW 04:51:05 54° SE 05:00:09 10° NE visible
07 Oct - 06:47:50 10° WSW 06:55:53 31° NW 07:03:49 10° N daylight
07 Oct - 15:29:45 10° N 15:36:58 23° NE 15:44:18 10° E daylight
07 Oct - 17:32:12 10° NW 17:41:59 75° SW 17:52:06 10° SSE daylight
07 Oct - 19:42:49 10° WSW 19:47:36 14° SW 19:52:25 10° SSW visible
08 Oct - 04:20:11 10° SSW 04:29:30 51° SE 04:38:29 10° ENE visible
08 Oct - 06:26:01 10° WSW 06:34:18 34° NW 06:42:26 10° NNE daylight
08 Oct - 15:08:29 10° N 15:15:20 21° NE 15:22:17 10° E daylight
08 Oct - 17:10:36 10° NW 17:20:23 80° SW 17:30:31 10° SE daylight
08 Oct - 19:20:34 10° WSW 19:25:54 16° SW 19:31:19 10° SSW visible
09 Oct - 03:58:41 10° SSW 04:07:55 47° SE 04:16:49 10° ENE visible
09 Oct - 06:04:13 10° WSW 06:12:43 36° NW 06:21:03 10° NNE daylight
09 Oct - 14:47:16 10° N 14:53:43 20° NE 15:00:15 10° E daylight
09 Oct - 16:49:00 10° NW 16:58:47 85° SW 17:08:55 10° SE daylight
09 Oct - 18:58:25 10° W 19:04:14 17° SW 19:10:11 10° S visible
